TimeCST,TemperatureF,Dew PointF,Humidity,Sea Level PressureIn,VisibilityMPH,Wind Direction,Wind SpeedMPH,Gust SpeedMPH,PrecipitationIn,Events,Conditions,WindDirDegrees,DateUTC
12:15 AM,32.0,9.1,38,29.76,10.0,SW,13.8,21.9,N/A,,Clear,220,2012-12-12 06:15:00
12:35 AM,31.3,9.5,40,29.75,10.0,SSW,16.1,21.9,N/A,,Clear,210,2012-12-12 06:35:00
12:55 AM,30.9,10.2,42,29.75,10.0,SW,13.8,-,N/A,,Clear,220,2012-12-12 06:55:00
1:15 AM,30.6,10.8,44,29.75,10.0,SW,13.8,19.6,N/A,,Clear,220,2012-12-12 07:15:00
1:35 AM,30.6,10.9,44,29.74,10.0,SW,13.8,-,N/A,,Clear,220,2012-12-12 07:35:00
1:55 AM,30.6,11.1,44,29.74,10.0,SW,12.7,-,N/A,,Clear,220,2012-12-12 07:55:00
2:15 AM,30.2,11.3,45,29.74,10.0,SW,12.7,-,N/A,,Clear,220,2012-12-12 08:15:00
2:35 AM,29.5,11.3,47,29.74,10.0,SSW,13.8,17.3,N/A,,Clear,210,2012-12-12 08:35:00
2:55 AM,28.4,11.3,49,29.75,10.0,SW,9.2,-,N/A,,Clear,220,2012-12-12 08:55:00
3:15 AM,28.4,11.7,50,29.75,10.0,WSW,4.6,-,N/A,,Clear,240,2012-12-12 09:15:00
3:35 AM,28.0,11.7,50,29.74,10.0,SW,5.8,-,N/A,,Clear,220,2012-12-12 09:35:00
3:55 AM,27.5,11.5,51,29.73,10.0,SSW,11.5,-,N/A,,Clear,210,2012-12-12 09:55:00
4:15 AM,27.5,11.3,51,29.73,10.0,SW,10.4,-,N/A,,Clear,220,2012-12-12 10:15:00
4:35 AM,26.6,11.1,52,29.74,10.0,WSW,4.6,16.1,N/A,,Clear,250,2012-12-12 10:35:00
4:55 AM,26.6,11.3,53,29.74,10.0,SW,6.9,-,N/A,,Clear,230,2012-12-12 10:55:00
5:15 AM,25.7,11.3,55,29.74,10.0,Calm,Calm,-,N/A,,Clear,0,2012-12-12 11:15:00
5:35 AM,25.9,11.3,54,29.75,10.0,Calm,Calm,-,N/A,,Clear,0,2012-12-12 11:35:00
5:55 AM,25.2,10.9,55,29.75,10.0,WSW,3.5,-,N/A,,Clear,240,2012-12-12 11:55:00
6:15 AM,23.7,10.9,58,29.75,10.0,SW,5.8,-,N/A,,Clear,220,2012-12-12 12:15:00
6:35 AM,24.8,11.5,57,29.75,10.0,SW,4.6,-,N/A,,Clear,220,2012-12-12 12:35:00
7:15 AM,23.7,11.5,60,29.76,10.0,WSW,3.5,-,N/A,,Clear,240,2012-12-12 13:15:00
7:35 AM,23.4,11.3,60,29.76,10.0,SSW,5.8,-,N/A,,Clear,210,2012-12-12 13:35:00
7:55 AM,23.5,10.8,58,29.76,10.0,SSW,6.9,-,N/A,,Clear,210,2012-12-12 13:55:00
8:15 AM,23.2,10.8,59,29.76,10.0,Calm,Calm,-,N/A,,Clear,0,2012-12-12 14:15:00
8:35 AM,24.3,10.9,57,29.76,10.0,SSW,6.9,-,N/A,,Clear,210,2012-12-12 14:35:00
8:55 AM,23.5,11.7,61,29.77,10.0,Calm,Calm,-,N/A,,Clear,0,2012-12-12 14:55:00
9:15 AM,26.2,12.0,55,29.77,10.0,Calm,Calm,-,N/A,,Clear,0,2012-12-12 15:15:00
9:35 AM,30.6,12.9,48,29.77,10.0,SW,4.6,-,N/A,,Clear,220,2012-12-12 15:35:00
9:55 AM,34.2,12.4,41,29.78,10.0,SW,4.6,-,N/A,,Clear,230,2012-12-12 15:55:00
10:15 AM,37.2,12.0,36,29.78,10.0,SSW,8.1,-,N/A,,Clear,210,2012-12-12 16:15:00
10:35 AM,41.9,13.1,31,29.78,10.0,SW,8.1,-,N/A,,Clear,220,2012-12-12 16:35:00
10:55 AM,47.8,14.0,26,29.78,10.0,WSW,10.4,-,N/A,,Clear,240,2012-12-12 16:55:00
11:15 AM,50.2,14.0,24,29.77,10.0,West,6.9,-,N/A,,Clear,260,2012-12-12 17:15:00
11:35 AM,52.2,14.0,22,29.77,10.0,WSW,9.2,-,0.01,,Clear,240,2012-12-12 17:35:00
11:55 AM,52.3,13.8,22,29.76,10.0,SSW,10.4,-,0.01,,Clear,200,2012-12-12 17:55:00
12:15 PM,51.1,13.5,22,29.75,10.0,SW,11.5,-,N/A,,Clear,220,2012-12-12 18:15:00
12:35 PM,52.3,13.3,21,29.74,10.0,SSW,13.8,-,N/A,,Clear,210,2012-12-12 18:35:00
12:55 PM,52.5,12.9,21,29.74,10.0,SSW,13.8,18.4,N/A,,Clear,210,2012-12-12 18:55:00
1:15 PM,53.6,12.7,20,29.73,10.0,SSW,15.0,-,N/A,,Clear,200,2012-12-12 19:15:00
1:55 PM,55.6,12.2,18,29.72,10.0,SSW,13.8,20.7,N/A,,Clear,200,2012-12-12 19:55:00
2:15 PM,56.3,11.8,17,29.71,10.0,SSW,13.8,21.9,N/A,,Clear,200,2012-12-12 20:15:00
2:35 PM,56.7,10.2,16,29.71,10.0,SSW,18.4,23.0,N/A,,Clear,200,2012-12-12 20:35:00
2:55 PM,56.7,9.7,15,29.71,10.0,SSW,16.1,-,N/A,,Clear,210,2012-12-12 20:55:00
3:15 PM,56.3,9.5,16,29.71,10.0,SSW,18.4,24.2,N/A,,Clear,210,2012-12-12 21:15:00
3:35 PM,55.0,9.7,16,29.72,10.0,SSW,16.1,-,N/A,,Clear,210,2012-12-12 21:35:00
3:55 PM,54.3,10.9,18,29.72,10.0,SSW,12.7,19.6,N/A,,Clear,210,2012-12-12 21:55:00
4:15 PM,50.7,11.5,21,29.74,10.0,South,6.9,-,N/A,,Clear,190,2012-12-12 22:15:00
4:35 PM,49.1,12.0,23,29.74,10.0,South,6.9,-,N/A,,Clear,190,2012-12-12 22:35:00
4:55 PM,45.3,11.8,26,29.74,10.0,South,8.1,-,N/A,,Clear,180,2012-12-12 22:55:00
5:15 PM,44.8,11.3,26,29.74,10.0,South,10.4,-,N/A,,Clear,190,2012-12-12 23:15:00
5:35 PM,44.2,11.1,26,29.75,10.0,South,11.5,-,N/A,,Clear,170,2012-12-12 23:35:00
5:55 PM,43.2,11.1,27,29.75,10.0,South,10.4,-,N/A,,Clear,180,2012-12-12 23:55:00
6:15 PM,42.3,11.1,28,29.76,10.0,South,9.2,-,N/A,,Clear,190,2012-12-13 00:15:00
6:55 PM,38.8,10.9,32,29.77,10.0,South,4.6,-,N/A,,Clear,180,2012-12-13 00:55:00
7:15 PM,37.8,10.9,33,29.78,10.0,South,5.8,-,N/A,,Clear,190,2012-12-13 01:15:00
7:35 PM,37.6,11.1,34,29.78,10.0,South,5.8,-,N/A,,Clear,170,2012-12-13 01:35:00
7:55 PM,41.0,12.0,31,29.78,10.0,South,11.5,-,N/A,,Clear,190,2012-12-13 01:55:00
8:15 PM,40.6,11.7,31,29.78,10.0,South,10.4,-,N/A,,Clear,180,2012-12-13 02:15:00
8:35 PM,39.4,11.3,32,29.78,10.0,South,9.2,-,N/A,,Clear,180,2012-12-13 02:35:00
8:55 PM,38.7,11.3,33,29.79,10.0,South,11.5,-,N/A,,Clear,190,2012-12-13 02:55:00
9:15 PM,37.6,11.3,34,29.80,10.0,SSW,12.7,-,N/A,,Clear,200,2012-12-13 03:15:00
9:35 PM,37.0,11.7,35,29.80,10.0,SSW,11.5,-,N/A,,Clear,210,2012-12-13 03:35:00
9:55 PM,38.3,11.8,34,29.81,10.0,SSW,12.7,-,N/A,,Clear,210,2012-12-13 03:55:00
10:15 PM,37.4,11.8,35,29.81,10.0,SW,11.5,-,N/A,,Clear,220,2012-12-13 04:15:00
10:35 PM,36.1,11.5,36,29.81,10.0,SW,5.8,-,N/A,,Clear,230,2012-12-13 04:35:00
10:55 PM,33.1,11.8,41,29.82,10.0,Calm,Calm,-,N/A,,Clear,0,2012-12-13 04:55:00
11:15 PM,34.2,12.2,40,29.82,10.0,West,4.6,-,N/A,,Clear,270,2012-12-13 05:15:00
11:35 PM,31.1,12.6,46,29.84,10.0,Calm,Calm,-,N/A,,Clear,0,2012-12-13 05:35:00
11:55 PM,30.2,12.7,48,29.84,10.0,SW,4.6,-,N/A,,Clear,220,2012-12-13 05:55:00